カタログに戻る

SCOUT A DEB

運用中PO
NORAD 31407·DEBRIS·🇺🇸 United States

打ち上げ May 19, 1966 から Vandenberg Space Force Base

Loading…

次のパス (今後24時間)

TLE

最新Source: Space-Track

元期: Sep 13, 2026, 05:52 UTC

1 31407U 66041H   26256.24450090  .00001432  00000-0  50999-3 0  9992
2 31407  90.1975  76.9835 0053377 317.8851  41.8250 14.33156554512773

AllMySatでSCOUT A DEBをリアルタイム追跡

Download on the App Store